TimeEDT,TemperatureF,Dew PointF,Humidity,Sea Level PressureIn,VisibilityMPH,Wind Direction,Wind SpeedMPH,Gust SpeedMPH,PrecipitationIn,Events,Conditions,WindDirDegrees,DateUTC
12:11 AM,66.2,62.6,88,29.82,4.0,SSW,17.3,-,N/A,Rain,Light Rain,200,2013-04-20 04:11:00
12:22 AM,66.2,62.6,88,29.82,6.0,SSW,16.1,-,N/A,Rain,Light Rain,210,2013-04-20 04:22:00
12:35 AM,66.2,62.6,88,29.81,6.0,SSW,16.1,-,N/A,Rain,Light Rain,200,2013-04-20 04:35:00
12:55 AM,65.8,62.6,89,29.80,5.0,South,11.5,-,0.07,Rain,Light Rain,190,2013-04-20 04:55:00
12:58 AM,66.2,62.6,88,29.80,5.0,South,12.7,-,N/A,Rain,Light Rain,190,2013-04-20 04:58:00
1:43 AM,66.2,62.6,88,29.81,4.0,SSW,15.0,-,N/A,Rain,Light Rain,200,2013-04-20 05:43:00
1:46 AM,66.2,62.6,88,29.81,5.0,SSW,13.8,-,N/A,Rain,Light Rain,200,2013-04-20 05:46:00
1:55 AM,65.8,63.3,92,29.81,5.0,South,16.1,-,0.04,Rain,Light Rain,190,2013-04-20 05:55:00
1:56 AM,66.2,62.6,88,29.82,7.0,SSW,17.3,-,N/A,Rain,Light Rain,200,2013-04-20 05:56:00
1:59 AM,66.2,62.6,88,29.82,7.0,SSW,18.4,-,N/A,Rain,Light Rain,200,2013-04-20 05:59:00
2:13 AM,66.2,62.6,88,29.81,4.0,SSW,16.1,-,N/A,Rain,Light Rain,200,2013-04-20 06:13:00
2:16 AM,66.2,62.6,88,29.81,4.0,South,13.8,-,N/A,Rain,Light Rain,190,2013-04-20 06:16:00
2:20 AM,66.2,62.6,88,29.81,5.0,South,15.0,-,N/A,Rain,Light Rain,190,2013-04-20 06:20:00
2:36 AM,66.2,62.6,88,29.81,3.0,SSW,15.0,-,N/A,Rain,Light Rain,200,2013-04-20 06:36:00
2:38 AM,66.2,62.6,88,29.81,3.0,South,15.0,-,N/A,Rain,Light Rain,190,2013-04-20 06:38:00
2:48 AM,66.2,62.6,88,29.81,4.0,SSW,13.8,-,N/A,Rain,Light Rain,200,2013-04-20 06:48:00
2:55 AM,65.8,62.6,89,29.80,4.0,SSW,16.1,-,0.06,Rain,Light Rain,210,2013-04-20 06:55:00
2:58 AM,66.2,62.6,88,29.80,5.0,SSW,15.0,-,N/A,Rain,Light Rain,200,2013-04-20 06:58:00
3:00 AM,66.2,62.6,88,29.80,5.0,SSW,15.0,-,N/A,Rain,Light Rain,200,2013-04-20 07:00:00
3:04 AM,66.2,62.6,88,29.80,5.0,SSW,13.8,-,N/A,Rain,Light Rain,200,2013-04-20 07:04:00
3:29 AM,66.2,62.6,88,29.81,6.0,SSW,15.0,26.5,N/A,Rain,Light Rain,200,2013-04-20 07:29:00
3:33 AM,66.2,62.6,88,29.80,7.0,SSW,18.4,26.5,N/A,Rain,Light Rain,210,2013-04-20 07:33:00
3:34 AM,66.2,62.6,88,29.80,8.0,SSW,19.6,26.5,N/A,Rain,Light Rain,210,2013-04-20 07:34:00
3:35 AM,66.2,62.6,88,29.80,8.0,SSW,17.3,26.5,N/A,Rain,Light Rain,210,2013-04-20 07:35:00
3:44 AM,66.2,60.8,83,29.83,6.0,WSW,18.4,26.5,N/A,Rain,Light Rain,240,2013-04-20 07:44:00
3:47 AM,64.4,60.8,88,29.83,2.5,WNW,23.0,28.8,N/A,Rain,Rain,290,2013-04-20 07:47:00
3:49 AM,64.4,59.0,83,29.83,2.0,West,21.9,28.8,N/A,Rain,Light Rain,280,2013-04-20 07:49:00
3:55 AM,63.7,58.6,84,29.83,2.0,WNW,20.7,28.8,0.09,Rain,Light Rain,290,2013-04-20 07:55:00
3:58 AM,60.8,55.4,82,29.84,5.0,NW,13.8,28.8,N/A,Rain,Rain,310,2013-04-20 07:58:00
4:01 AM,60.8,55.4,82,29.84,4.0,NW,13.8,23.0,N/A,Rain,Rain,320,2013-04-20 08:01:00
4:04 AM,60.8,55.4,82,29.85,4.0,NNW,23.0,28.8,N/A,Rain,Rain,330,2013-04-20 08:04:00
4:05 AM,60.8,55.4,82,29.85,3.0,NNW,25.3,28.8,N/A,Rain,Rain,330,2013-04-20 08:05:00
4:30 AM,53.6,48.2,82,29.90,4.0,NNW,19.6,28.8,N/A,Rain,Light Rain,340,2013-04-20 08:30:00
4:31 AM,53.6,48.2,82,29.91,5.0,NNW,16.1,28.8,N/A,Rain,Light Rain,340,2013-04-20 08:31:00
4:41 AM,51.8,46.4,82,29.92,6.0,NNW,17.3,21.9,N/A,Rain,Rain,340,2013-04-20 08:41:00
4:44 AM,51.8,46.4,82,29.92,6.0,NNW,12.7,-,N/A,Rain,Light Rain,340,2013-04-20 08:44:00
4:45 AM,51.8,46.4,82,29.92,6.0,North,16.1,21.9,N/A,Rain,Light Rain,350,2013-04-20 08:45:00
4:55 AM,51.8,46.9,83,29.91,6.0,North,16.1,21.9,0.07,Rain,Rain,350,2013-04-20 08:55:00
5:11 AM,50.0,46.4,87,29.94,8.0,NNW,12.7,21.9,N/A,Rain,Light Rain,330,2013-04-20 09:11:00
5:30 AM,50.0,44.6,82,29.94,9.0,NNW,13.8,-,N/A,Rain,Light Rain,340,2013-04-20 09:30:00
5:55 AM,50.5,45.0,81,29.96,9.0,North,11.5,18.4,0.03,Rain,Light Rain,350,2013-04-20 09:55:00
5:56 AM,50.0,44.6,82,29.95,9.0,North,13.8,-,N/A,Rain,Light Rain,350,2013-04-20 09:56:00
6:12 AM,50.0,44.6,82,29.96,10.0,North,9.2,-,N/A,Rain,Light Rain,350,2013-04-20 10:12:00
6:15 AM,50.0,44.6,82,29.95,10.0,North,11.5,-,N/A,,Overcast,360,2013-04-20 10:15:00
6:19 AM,50.0,44.6,82,29.96,10.0,North,12.7,-,N/A,Rain,Light Rain,360,2013-04-20 10:19:00
6:30 AM,51.8,44.6,76,29.98,10.0,North,11.5,-,N/A,,Overcast,350,2013-04-20 10:30:00
6:55 AM,51.1,45.1,80,29.99,10.0,NNW,11.5,-,0.00,,Overcast,340,2013-04-20 10:55:00
7:55 AM,51.6,45.7,80,30.02,10.0,Variable,6.9,-,N/A,,Overcast,0,2013-04-20 11:55:00
8:55 AM,53.1,44.8,73,30.06,10.0,NW,8.1,-,N/A,,Overcast,320,2013-04-20 12:55:00
9:34 AM,53.6,46.4,77,30.07,10.0,NW,6.9,-,N/A,,Overcast,310,2013-04-20 13:34:00
9:41 AM,53.6,44.6,72,30.08,10.0,NW,5.8,-,N/A,,Mostly Cloudy,310,2013-04-20 13:41:00
9:55 AM,53.8,44.4,71,30.08,10.0,West,6.9,-,N/A,,Mostly Cloudy,280,2013-04-20 13:55:00
9:59 AM,53.6,44.6,72,30.09,10.0,WNW,4.6,-,N/A,,Mostly Cloudy,290,2013-04-20 13:59:00
10:13 AM,53.6,42.8,67,30.09,10.0,NW,8.1,-,N/A,,Mostly Cloudy,310,2013-04-20 14:13:00
10:55 AM,54.7,38.1,54,30.12,10.0,NW,12.7,-,N/A,,Scattered Clouds,310,2013-04-20 14:55:00
11:55 AM,54.7,35.4,48,30.11,10.0,NW,11.5,-,N/A,,Scattered Clouds,320,2013-04-20 15:55:00
12:55 PM,56.7,37.8,49,30.11,10.0,NNW,5.8,-,N/A,,Mostly Cloudy,340,2013-04-20 16:55:00
1:55 PM,56.7,37.4,49,30.12,10.0,NW,10.4,-,N/A,,Scattered Clouds,320,2013-04-20 17:55:00
2:55 PM,57.6,35.2,43,30.13,10.0,NW,8.1,-,N/A,,Partly Cloudy,310,2013-04-20 18:55:00
3:55 PM,57.6,33.3,40,30.13,10.0,WSW,6.9,-,N/A,,Scattered Clouds,240,2013-04-20 19:55:00
4:55 PM,57.0,34.5,43,30.13,10.0,WSW,3.5,-,N/A,,Partly Cloudy,250,2013-04-20 20:55:00
5:30 PM,57.2,33.8,41,30.15,10.0,SW,6.9,-,N/A,Rain,Light Rain,220,2013-04-20 21:30:00
5:39 PM,57.2,33.8,41,30.15,10.0,SSW,5.8,-,N/A,,Partly Cloudy,210,2013-04-20 21:39:00
5:55 PM,57.6,34.2,41,30.15,10.0,SSW,4.6,-,0.00,,Partly Cloudy,210,2013-04-20 21:55:00
6:03 PM,57.2,35.6,44,30.16,10.0,Variable,4.6,-,N/A,,Clear,0,2013-04-20 22:03:00
6:38 PM,57.2,35.6,44,30.16,10.0,South,3.5,-,N/A,Rain,Light Rain,190,2013-04-20 22:38:00
6:55 PM,57.0,36.7,47,30.17,10.0,Calm,Calm,-,0.00,Rain,Light Rain,0,2013-04-20 22:55:00
7:55 PM,54.9,41.7,61,30.19,10.0,ESE,6.9,-,0.00,,Clear,120,2013-04-20 23:55:00
8:55 PM,54.5,41.5,62,30.24,10.0,ESE,6.9,-,N/A,,Clear,110,2013-04-21 00:55:00
9:55 PM,54.0,42.3,65,30.28,10.0,ESE,5.8,-,N/A,,Clear,120,2013-04-21 01:55:00
10:55 PM,50.0,44.4,81,30.29,10.0,SE,3.5,-,N/A,,Clear,130,2013-04-21 02:55:00
11:55 PM,47.1,43.3,87,30.30,10.0,Calm,Calm,-,N/A,,Clear,0,2013-04-21 03:55:00